Aeroporto :
LOGIN :

Iscrizione | Disclaimer

   EN    FR    IT 

 










Sommario :    VFR   VFR Marginale   IFR   IFR Intensivo   IFR Molto Intensivo
Visibilità : 
Base nubi : 
>= 8 km
>= 3000ft
5 / 8 km
1000 / 3000 ft
1500m / 5 km
500 / 1000 ft
800 / 1500m
200 / 500 ft
< 800m
< 200 ft
Simboli :   Temporali  Nebbia  Neve Forte  Precipitazioni Forti  Vento > 20 kt
SIGMETs :   Varie  Temporali  Ghiacco  Turbolenza  Onda orograficha  Ceneri Vulcaniche






- Altitudine del aeroporto : 12 ft
- Codice IATA : NCE


LFMN - Nice

ULTIMO METAR :
  • 080200Z 33007KT CAVOK 23/16 Q1015 NOSIG

METARs OBSOLETI :
  • 080130Z 33007KT CAVOK 23/16 Q1015 NOSIG
  • 080100Z 33007KT CAVOK 23/16 Q1015 NOSIG
  • 080030Z 33005KT CAVOK 23/16 Q1015 NOSIG
  • 080000Z 32005KT CAVOK 23/16 Q1015 NOSIG
  • 072330Z 31003KT CAVOK 24/16 Q1015 NOSIG

TAF TAF LFMN
Valido dal 07 a 21 ore il 09 a 03 ore UTC


072000Z 0721/0903 23010KT CAVOK
BECMG 0721/0723 VRB05KT
BECMG 0809/0811 18010KT
BECMG 0817/0819 VRB05KT
ATIS : +33 4 93 17 21 16



MetMap, La meteo Aeronautica in un colpo d'occhio ! - Copyright ORBIFLY Dicembre 2007 - Disclaimer

ORBIFLY MET'MAP TEAM :

Programmazione e sviluppo : Alexandra Zaïnal
Concezione : Baudouin d'Aumeries
Aiuto per la programmazione : Marc-Olivier Méhu
Supporto tecnico e logistico : Manuel Goepfert
Aiuto per la traduzione : Arnaldo La Scala

Contatto : metmap@orbifly.com




FONTI E CREDITI :

   NOAA